Location: Enid
(36.3960°N, 97.8780°W)
Time: 23:55:32
(UTC-05:00)

Hubble Space Telescope - Visible Passes

Search period start: 29 September 2016 00:00
Search period end: 09 October 2016 00:00
Orbit: 539 x 542 km, 28.5° (Epoch: 28 September)

Date Brightness Start Highest point End Pass type
(mag) Time Alt. Az. Time Alt. Az. Time Alt. Az.
04 Oct 3.1 20:24:33 10° S 20:25:21 10° SSE 20:25:29 10° SSE visible
05 Oct 2.9 20:13:30 10° S 20:15:25 13° SSE 20:16:23 12° SE visible
06 Oct 2.8 20:03:02 10° SSW 20:05:29 15° SSE 20:07:14 12° SE visible
07 Oct 2.7 19:52:44 10° SSW 19:55:34 18° SSE 19:58:01 11° SE visible
07 Oct 3.5 21:32:45 10° SW 21:33:25 13° SW 21:33:25 13° SW visible
08 Oct 2.6 19:42:34 10° SW 19:45:39 20° SSE 19:48:43 10° ESE visible
08 Oct 3.1 21:22:51 10° WSW 21:24:10 17° SW 21:24:10 17° SW visible
